Hourly Weather Bolshie Kabany

Today, 20 June, Sunday

Time Temperature Precipitation Wind Pressure Humidity
00:00 +19°C° 0 mm 4 mps 756 mmHg 86%
01:00 +19°C° 0 mm 4 mps 757 mmHg 87%
02:00 +18°C° 0 mm 4 mps 757 mmHg 88%
03:00 +18°C° 0 mm 3 mps 757 mmHg 89%
04:00 +19°C° 0 mm 3 mps 757 mmHg 86%
05:00 +20°C° 0 mm 3 mps 757 mmHg 82%
06:00 +21°C° 0 mm 3 mps 757 mmHg 78%
07:00 +24°C° 0 mm 3 mps 757 mmHg 72%
08:00 +26°C° 0 mm 4 mps 757 mmHg 66%
09:00 +27°C° 0 mm 4 mps 757 mmHg 61%
10:00 +28°C° 0 mm 3 mps 757 mmHg 58%
11:00 +29°C° 0 mm 3 mps 757 mmHg 55%
12:00 +30°C° 0 mm 3 mps 757 mmHg 52%
13:00 +30°C° 0 mm 3 mps 757 mmHg 52%
14:00 +31°C° 0 mm 3 mps 757 mmHg 51%
15:00 +31°C° 0 mm 3 mps 757 mmHg 50%
16:00 +30°C° 0 mm 2 mps 757 mmHg 56%
17:00 +29°C° 0 mm 2 mps 757 mmHg 63%
18:00 +28°C° 0 mm 2 mps 757 mmHg 69%
19:00 +26°C° 0.1 mm 2 mps 757 mmHg 73%
20:00 +25°C° 0.1 mm 2 mps 757 mmHg 76%
21:00 +24°C° 0.1 mm 2 mps 758 mmHg 80%
22:00 +23°C° 0 mm 2 mps 758 mmHg 80%
23:00 +23°C° 0 mm 2 mps 758 mmHg 81%

Tomorrow, 21 June, Monday

Time Temperature Precipitation Wind Pressure Humidity
00:00 +21°C° 0 mm 2 mps 758 mmHg 81%
01:00 +21°C° 0 mm 2 mps 758 mmHg 82%
02:00 +21°C° 0 mm 2 mps 758 mmHg 84%
03:00 +22°C° 0 mm 1 mps 758 mmHg 86%
04:00 +21°C° 0 mm 2 mps 758 mmHg 85%
05:00 +23°C° 0 mm 2 mps 758 mmHg 84%
06:00 +24°C° 0 mm 2 mps 758 mmHg 83%
07:00 +25°C° 0 mm 2 mps 758 mmHg 76%
08:00 +27°C° 0 mm 3 mps 758 mmHg 70%
09:00 +28°C° 0 mm 3 mps 758 mmHg 63%
10:00 +29°C° 0 mm 3 mps 758 mmHg 59%
11:00 +30°C° 0 mm 4 mps 758 mmHg 56%
12:00 +32°C° 0 mm 4 mps 758 mmHg 52%
13:00 +32°C° 0 mm 4 mps 758 mmHg 51%
14:00 +32°C° 0 mm 4 mps 758 mmHg 50%
15:00 +32°C° 0 mm 4 mps 757 mmHg 49%
16:00 +30°C° 0 mm 4 mps 757 mmHg 54%
17:00 +30°C° 0 mm 3 mps 757 mmHg 59%
18:00 +29°C° 0 mm 3 mps 757 mmHg 64%
19:00 +27°C° 0 mm 3 mps 757 mmHg 70%
20:00 +26°C° 0 mm 2 mps 757 mmHg 75%
21:00 +24°C° 0 mm 2 mps 757 mmHg 80%
22:00 +24°C° 0 mm 2 mps 757 mmHg 82%
23:00 +23°C° 0 mm 2 mps 757 mmHg 84%

Day after tomorrow, 22 June, Tuesday

Time Temperature Precipitation Wind Pressure Humidity
00:00 +23°C° 0 mm 2 mps 757 mmHg 87%
01:00 +23°C° 0 mm 2 mps 757 mmHg 88%
02:00 +21°C° 0 mm 2 mps 757 mmHg 89%
03:00 +21°C° 0 mm 2 mps 757 mmHg 91%
04:00 +23°C° 0 mm 2 mps 758 mmHg 86%
05:00 +24°C° 0 mm 2 mps 758 mmHg 82%
06:00 +25°C° 0 mm 2 mps 758 mmHg 77%
07:00 +27°C° 0 mm 3 mps 758 mmHg 71%
08:00 +28°C° 0 mm 3 mps 758 mmHg 65%
09:00 +29°C° 0 mm 3 mps 758 mmHg 59%
10:00 +30°C° 0 mm 3 mps 758 mmHg 55%
11:00 +31°C° 0 mm 3 mps 758 mmHg 51%
12:00 +33°C° 0 mm 3 mps 758 mmHg 48%
13:00 +33°C° 0 mm 3 mps 758 mmHg 48%
14:00 +33°C° 0 mm 4 mps 758 mmHg 47%
15:00 +33°C° 0 mm 4 mps 757 mmHg 47%
16:00 +32°C° 0 mm 4 mps 757 mmHg 53%
17:00 +31°C° 0 mm 3 mps 757 mmHg 58%
18:00 +30°C° 0 mm 3 mps 757 mmHg 63%
19:00 +28°C° 0 mm 3 mps 757 mmHg 66%
20:00 +27°C° 0 mm 3 mps 757 mmHg 69%
21:00 +26°C° 0 mm 3 mps 757 mmHg 72%
22:00 +25°C° 0 mm 2 mps 757 mmHg 76%
23:00 +24°C° 0 mm 2 mps 757 mmHg 79%

23 June, Wednesday

Time Temperature Precipitation Wind Pressure Humidity
00:00 +23°C° 0 mm 2 mps 757 mmHg 83%
01:00 +23°C° 0 mm 2 mps 757 mmHg 84%
02:00 +21°C° 0 mm 2 mps 757 mmHg 85%
03:00 +21°C° 0 mm 2 mps 757 mmHg 87%
04:00 +23°C° 0 mm 2 mps 757 mmHg 83%
05:00 +24°C° 0 mm 2 mps 757 mmHg 79%
06:00 +25°C° 0 mm 2 mps 757 mmHg 75%
07:00 +27°C° 0 mm 3 mps 757 mmHg 69%
08:00 +28°C° 0 mm 3 mps 757 mmHg 63%
09:00 +30°C° 0 mm 3 mps 758 mmHg 57%
10:00 +31°C° 0 mm 3 mps 757 mmHg 53%
11:00 +31°C° 0 mm 3 mps 757 mmHg 49%
12:00 +33°C° 0 mm 3 mps 757 mmHg 46%
13:00 +33°C° 0 mm 3 mps 757 mmHg 45%
14:00 +34°C° 0 mm 3 mps 757 mmHg 44%
15:00 +34°C° 0 mm 4 mps 757 mmHg 43%
16:00 +33°C° 0 mm 4 mps 757 mmHg 49%
17:00 +31°C° 0 mm 3 mps 756 mmHg 55%
18:00 +30°C° 0 mm 3 mps 756 mmHg 61%
19:00 +28°C° 0.2 mm 3 mps 756 mmHg 63%
20:00 +27°C° 0.2 mm 2 mps 756 mmHg 66%
21:00 +25°C° 0.2 mm 2 mps 756 mmHg 69%
22:00 +25°C° 0 mm 2 mps 756 mmHg 74%
23:00 +24°C° 0 mm 2 mps 756 mmHg 78%

24 June, Thursday

Time Temperature Precipitation Wind Pressure Humidity
00:00 +24°C° 0 mm 2 mps 756 mmHg 83%
01:00 +23°C° 0 mm 2 mps 756 mmHg 84%
02:00 +23°C° 0 mm 2 mps 756 mmHg 85%
03:00 +23°C° 0 mm 2 mps 756 mmHg 87%
04:00 +24°C° 0 mm 2 mps 756 mmHg 83%
05:00 +25°C° 0 mm 2 mps 756 mmHg 79%
06:00 +26°C° 0 mm 2 mps 756 mmHg 76%
07:00 +27°C° 0 mm 2 mps 756 mmHg 70%
08:00 +29°C° 0 mm 3 mps 755 mmHg 63%
09:00 +30°C° 0 mm 3 mps 755 mmHg 57%
10:00 +31°C° 0 mm 3 mps 755 mmHg 54%
11:00 +33°C° 0 mm 3 mps 755 mmHg 51%
12:00 +34°C° 0 mm 4 mps 755 mmHg 47%
13:00 +35°C° 0 mm 4 mps 755 mmHg 46%
14:00 +35°C° 0 mm 4 mps 754 mmHg 44%
15:00 +35°C° 0 mm 4 mps 754 mmHg 42%
16:00 +34°C° 0 mm 4 mps 754 mmHg 49%
17:00 +33°C° 0 mm 4 mps 754 mmHg 56%
18:00 +32°C° 0 mm 4 mps 753 mmHg 62%
19:00 +30°C° 0 mm 4 mps 753 mmHg 69%
20:00 +28°C° 0 mm 3 mps 753 mmHg 75%
21:00 +27°C° 0 mm 3 mps 753 mmHg 81%
22:00 +26°C° 0 mm 3 mps 753 mmHg 82%
23:00 +25°C° 0 mm 3 mps 753 mmHg 83%

25 June, Friday

Time Temperature Precipitation Wind Pressure Humidity
00:00 +25°C° 0 mm 3 mps 753 mmHg 84%
01:00 +25°C° 0 mm 3 mps 753 mmHg 82%
02:00 +24°C° 0 mm 3 mps 753 mmHg 81%
03:00 +24°C° 0 mm 3 mps 752 mmHg 80%
04:00 +25°C° 0 mm 3 mps 752 mmHg 78%
05:00 +25°C° 0 mm 3 mps 752 mmHg 77%
06:00 +26°C° 0 mm 3 mps 752 mmHg 75%
07:00 +27°C° 0 mm 3 mps 752 mmHg 69%
08:00 +29°C° 0 mm 4 mps 752 mmHg 63%
09:00 +30°C° 0 mm 4 mps 752 mmHg 57%
10:00 +33°C° 0 mm 5 mps 752 mmHg 53%
11:00 +34°C° 0 mm 5 mps 752 mmHg 50%
12:00 +35°C° 0 mm 5 mps 752 mmHg 46%
13:00 +35°C° 0 mm 5 mps 752 mmHg 46%
14:00 +35°C° 0 mm 4 mps 752 mmHg 46%
15:00 +35°C° 0 mm 4 mps 751 mmHg 46%
16:00 +32°C° 1.5 mm 4 mps 751 mmHg 58%
17:00 +28°C° 1.5 mm 4 mps 751 mmHg 69%
18:00 +25°C° 1.5 mm 4 mps 751 mmHg 81%
19:00 +24°C° 0.5 mm 3 mps 751 mmHg 80%
20:00 +24°C° 0.5 mm 2 mps 751 mmHg 79%
21:00 +24°C° 0.5 mm 2 mps 751 mmHg 78%
22:00 +24°C° 0.2 mm 2 mps 751 mmHg 80%
23:00 +24°C° 0.2 mm 1 mps 751 mmHg 83%
Show more